Time,TemperatureF,DewpointF,PressureIn,WindDirection,WindDirectionDegrees,WindSpeedMPH,WindSpeedGustMPH,Humidity,HourlyPrecipIn,Conditions,Clouds,dailyrainin,SolarRadiationWatts/m^2,SoftwareType,DateUTC
2013-05-02 00:13:00,49.0,48.0,30.11,NW,316,0.0,1.0,95,0.01,,,0.00,0,weatherlink.com 1.10,2013-05-01 22:13:00,
2013-05-02 00:28:00,49.0,48.0,30.09,NNE,20,0.0,1.0,96,0.06,,,0.06,0,weatherlink.com 1.10,2013-05-01 22:28:00,
2013-05-02 00:43:00,48.9,48.0,30.10,East,86,0.0,0.0,96,0.11,,,0.11,0,weatherlink.com 1.10,2013-05-01 22:43:00,
2013-05-02 00:58:00,48.9,48.0,30.10,East,85,0.0,0.0,96,0.13,,,0.13,0,weatherlink.com 1.10,2013-05-01 22:58:00,
2013-05-02 01:13:00,48.8,48.0,30.09,NE,54,0.0,1.0,96,0.23,,,0.23,0,weatherlink.com 1.10,2013-05-01 23:13:00,
2013-05-02 01:28:00,48.7,48.0,30.07,ENE,76,1.0,3.0,96,0.17,,,0.23,0,weatherlink.com 1.10,2013-05-01 23:28:00,
2013-05-02 01:43:00,48.4,47.0,30.07,ENE,65,0.0,5.0,96,0.13,,,0.24,0,weatherlink.com 1.10,2013-05-01 23:43:00,
2013-05-02 01:58:00,48.2,47.0,30.07,ENE,73,0.0,0.0,96,0.10,,,0.24,0,weatherlink.com 1.10,2013-05-01 23:58:00,
2013-05-02 02:13:00,48.1,47.0,30.06,ENE,70,0.0,2.0,96,0.01,,,0.24,0,weatherlink.com 1.10,2013-05-02 00:13:00,
2013-05-02 02:28:00,48.0,47.0,30.04,ENE,67,0.0,1.0,97,0.01,,,0.24,0,weatherlink.com 1.10,2013-05-02 00:28:00,
2013-05-02 02:43:00,47.9,47.0,30.03,ENE,67,0.0,0.0,97,0.00,,,0.24,0,weatherlink.com 1.10,2013-05-02 00:43:00,
2013-05-02 02:58:00,47.5,47.0,30.02,ENE,63,0.0,1.0,96,0.00,,,0.24,0,weatherlink.com 1.10,2013-05-02 00:58:00,
2013-05-02 03:13:00,47.1,46.0,30.01,NE,42,0.0,2.0,97,0.00,,,0.24,0,weatherlink.com 1.10,2013-05-02 01:13:00,
2013-05-02 03:28:00,47.0,46.0,30.02,NE,42,0.0,0.0,97,0.00,,,0.24,0,weatherlink.com 1.10,2013-05-02 01:28:00,
2013-05-02 03:43:00,46.9,46.0,30.01,ENE,57,0.0,1.0,97,0.00,,,0.24,0,weatherlink.com 1.10,2013-05-02 01:43:00,
2013-05-02 03:58:00,46.8,46.0,30.00,ENE,57,0.0,0.0,97,0.00,,,0.24,0,weatherlink.com 1.10,2013-05-02 01:58:00,
2013-05-02 04:13:00,47.0,46.0,30.03,NNW,343,0.0,1.0,97,0.00,,,0.24,0,weatherlink.com 1.10,2013-05-02 02:13:00,
2013-05-02 04:28:00,47.6,47.0,30.03,West,270,1.0,1.0,98,0.00,,,0.24,0,weatherlink.com 1.10,2013-05-02 02:28:00,
2013-05-02 04:43:00,48.0,48.0,30.03,WNW,290,0.0,2.0,98,0.00,,,0.24,0,weatherlink.com 1.10,2013-05-02 02:43:00,
2013-05-02 04:58:00,48.2,48.0,30.04,WNW,290,0.0,0.0,98,0.00,,,0.24,0,weatherlink.com 1.10,2013-05-02 02:58:00,
2013-05-02 05:13:00,48.4,48.0,30.04,WNW,290,0.0,0.0,98,0.00,,,0.24,0,weatherlink.com 1.10,2013-05-02 03:13:00,
2013-05-02 05:28:00,48.6,48.0,30.04,WNW,290,0.0,0.0,98,0.00,,,0.24,0,weatherlink.com 1.10,2013-05-02 03:28:00,
2013-05-02 05:43:00,48.7,48.0,30.04,WNW,290,0.0,1.0,98,0.00,,,0.24,0,weatherlink.com 1.10,2013-05-02 03:43:00,
2013-05-02 05:58:00,48.8,48.0,30.04,WNW,290,0.0,0.0,98,0.00,,,0.24,0,weatherlink.com 1.10,2013-05-02 03:58:00,
2013-05-02 06:13:00,48.7,48.0,30.03,WNW,290,0.0,0.0,98,0.00,,,0.24,5,weatherlink.com 1.10,2013-05-02 04:13:00,
2013-05-02 06:28:00,48.8,48.0,30.03,WNW,290,0.0,0.0,98,0.00,,,0.24,7,weatherlink.com 1.10,2013-05-02 04:28:00,
2013-05-02 06:43:00,48.9,48.0,30.04,WNW,290,0.0,0.0,98,0.00,,,0.24,11,weatherlink.com 1.10,2013-05-02 04:43:00,
2013-05-02 06:58:00,49.0,49.0,30.03,WNW,290,0.0,0.0,98,0.00,,,0.24,12,weatherlink.com 1.10,2013-05-02 04:58:00,
2013-05-02 07:13:00,49.1,49.0,30.04,WNW,290,0.0,1.0,98,0.01,,,0.24,28,weatherlink.com 1.10,2013-05-02 05:13:00,
2013-05-02 07:28:00,49.3,49.0,30.04,WNW,290,0.0,0.0,98,0.01,,,0.24,40,weatherlink.com 1.10,2013-05-02 05:28:00,
2013-05-02 07:43:00,49.4,49.0,30.04,WNW,290,0.0,0.0,98,0.01,,,0.24,25,weatherlink.com 1.10,2013-05-02 05:43:00,
2013-05-02 07:58:00,49.5,49.0,30.05,WNW,290,0.0,0.0,98,0.01,,,0.24,33,weatherlink.com 1.10,2013-05-02 05:58:00,
2013-05-02 08:13:00,49.6,49.0,30.05,NNW,336,0.0,1.0,98,0.00,,,0.24,26,weatherlink.com 1.10,2013-05-02 06:13:00,
2013-05-02 08:28:00,49.6,49.0,30.06,NNW,340,0.0,1.0,98,0.00,,,0.24,42,weatherlink.com 1.10,2013-05-02 06:28:00,
2013-05-02 08:43:00,49.7,49.0,30.06,NNW,340,0.0,0.0,98,0.00,,,0.24,60,weatherlink.com 1.10,2013-05-02 06:43:00,
2013-05-02 08:59:00,49.9,49.0,30.06,NNW,340,0.0,0.0,98,0.00,,,0.24,83,weatherlink.com 1.10,2013-05-02 06:59:00,
2013-05-02 09:14:00,50.3,50.0,30.06,WNW,284,0.0,1.0,98,0.00,,,0.24,105,weatherlink.com 1.10,2013-05-02 07:14:00,
2013-05-02 09:29:00,50.7,50.0,30.06,SW,217,0.0,1.0,98,0.01,,,0.25,158,weatherlink.com 1.10,2013-05-02 07:29:00,
2013-05-02 09:44:00,51.2,51.0,30.06,SW,217,0.0,1.0,98,0.01,,,0.25,178,weatherlink.com 1.10,2013-05-02 07:44:00,
2013-05-02 09:59:00,51.7,51.0,30.06,SW,217,0.0,1.0,98,0.01,,,0.25,120,weatherlink.com 1.10,2013-05-02 07:59:00,
2013-05-02 10:14:00,51.8,51.0,30.06,South,187,0.0,2.0,96,0.01,,,0.25,121,weatherlink.com 1.10,2013-05-02 08:14:00,
2013-05-02 10:29:00,52.0,51.0,30.06,West,265,0.0,2.0,96,0.00,,,0.25,185,weatherlink.com 1.10,2013-05-02 08:29:00,
2013-05-02 10:44:00,52.6,52.0,30.06,South,185,0.0,2.0,96,0.00,,,0.25,227,weatherlink.com 1.10,2013-05-02 08:44:00,
2013-05-02 10:59:00,53.1,52.0,30.05,WSW,250,0.0,3.0,94,0.00,,,0.25,200,weatherlink.com 1.10,2013-05-02 08:59:00,
2013-05-02 11:14:00,53.9,53.0,30.05,SW,232,1.0,2.0,95,0.00,,,0.25,265,weatherlink.com 1.10,2013-05-02 09:14:00,
2013-05-02 11:29:00,55.1,53.0,30.04,SW,229,0.0,1.0,93,0.00,,,0.25,485,weatherlink.com 1.10,2013-05-02 09:29:00,
2013-05-02 11:44:00,56.0,54.0,30.04,ENE,74,0.0,1.0,94,0.00,,,0.25,338,weatherlink.com 1.10,2013-05-02 09:44:00,
2013-05-02 11:59:00,56.8,54.0,30.03,NE,55,0.0,2.0,91,0.00,,,0.25,295,weatherlink.com 1.10,2013-05-02 09:59:00,
2013-05-02 12:14:00,56.9,54.0,30.03,NE,56,0.0,1.0,91,0.00,,,0.25,262,weatherlink.com 1.10,2013-05-02 10:14:00,
2013-05-02 12:29:00,57.1,54.0,30.03,NE,56,0.0,0.0,89,0.00,,,0.25,207,weatherlink.com 1.10,2013-05-02 10:29:00,
2013-05-02 12:44:00,57.2,54.0,30.03,ENE,77,0.0,0.0,90,0.00,,,0.25,274,weatherlink.com 1.10,2013-05-02 10:44:00,
2013-05-02 12:59:00,58.0,55.0,30.03,ENE,75,1.0,1.0,90,0.00,,,0.25,243,weatherlink.com 1.10,2013-05-02 10:59:00,
2013-05-02 13:14:00,58.9,55.0,30.02,ENE,62,0.0,2.0,88,0.00,,,0.25,271,weatherlink.com 1.10,2013-05-02 11:14:00,
2013-05-02 13:29:00,58.5,54.0,30.02,ENE,62,0.0,0.0,85,0.00,,,0.25,424,weatherlink.com 1.10,2013-05-02 11:29:00,
2013-05-02 13:44:00,59.7,56.0,30.01,ENE,63,0.0,0.0,87,0.00,,,0.25,292,weatherlink.com 1.10,2013-05-02 11:44:00,
2013-05-02 13:59:00,59.9,56.0,30.02,WSW,258,0.0,1.0,88,0.00,,,0.25,330,weatherlink.com 1.10,2013-05-02 11:59:00,
2013-05-02 14:14:00,60.5,56.0,30.02,NNE,24,0.0,1.0,84,0.00,,,0.25,262,weatherlink.com 1.10,2013-05-02 12:14:00,
2013-05-02 14:29:00,61.2,56.0,30.01,East,96,0.0,3.0,84,0.00,,,0.25,255,weatherlink.com 1.10,2013-05-02 12:29:00,
2013-05-02 14:44:00,61.4,57.0,30.01,ESE,105,1.0,1.0,86,0.00,,,0.25,265,weatherlink.com 1.10,2013-05-02 12:44:00,
2013-05-02 14:59:00,62.3,57.0,30.00,ENE,64,0.0,3.0,83,0.00,,,0.25,295,weatherlink.com 1.10,2013-05-02 12:59:00,
2013-05-02 15:14:00,61.4,57.0,30.00,ENE,62,1.0,4.0,85,0.00,,,0.25,183,weatherlink.com 1.10,2013-05-02 13:14:00,
2013-05-02 15:29:00,60.5,56.0,30.00,ENE,66,0.0,4.0,85,0.00,,,0.25,190,weatherlink.com 1.10,2013-05-02 13:29:00,
2013-05-02 15:44:00,60.5,56.0,30.00,NE,48,0.0,3.0,86,0.00,,,0.25,192,weatherlink.com 1.10,2013-05-02 13:44:00,
2013-05-02 15:59:00,60.8,56.0,30.00,ENE,76,0.0,2.0,85,0.00,,,0.25,206,weatherlink.com 1.10,2013-05-02 13:59:00,
2013-05-02 16:14:00,61.5,56.0,30.00,ENE,68,0.0,3.0,83,0.00,,,0.25,195,weatherlink.com 1.10,2013-05-02 14:14:00,
2013-05-02 16:29:00,61.3,56.0,30.00,ENE,61,0.0,2.0,82,0.00,,,0.25,178,weatherlink.com 1.10,2013-05-02 14:29:00,
2013-05-02 16:44:00,61.3,56.0,29.99,NE,55,0.0,1.0,83,0.00,,,0.25,169,weatherlink.com 1.10,2013-05-02 14:44:00,
2013-05-02 17:00:00,61.4,56.0,29.98,ENE,57,0.0,1.0,83,0.00,,,0.25,171,weatherlink.com 1.10,2013-05-02 15:00:00,
2013-05-02 17:15:00,61.7,57.0,29.98,ENE,60,0.0,0.0,85,0.00,,,0.25,156,weatherlink.com 1.10,2013-05-02 15:15:00,
2013-05-02 17:30:00,61.7,57.0,29.99,ENE,58,0.0,2.0,83,0.00,,,0.25,67,weatherlink.com 1.10,2013-05-02 15:30:00,
2013-05-02 17:45:00,61.3,57.0,29.99,ENE,57,0.0,1.0,84,0.00,,,0.25,30,weatherlink.com 1.10,2013-05-02 15:45:00,
2013-05-02 18:00:00,60.8,56.0,29.99,ENE,58,0.0,0.0,84,0.00,,,0.25,16,weatherlink.com 1.10,2013-05-02 16:00:00,
2013-05-02 18:15:00,60.2,56.0,29.99,ENE,58,0.0,0.0,85,0.00,,,0.25,21,weatherlink.com 1.10,2013-05-02 16:15:00,
2013-05-02 18:30:00,59.9,55.0,29.98,ENE,58,0.0,0.0,85,0.00,,,0.25,18,weatherlink.com 1.10,2013-05-02 16:30:00,
2013-05-02 18:45:00,59.7,55.0,29.98,ENE,58,0.0,0.0,85,0.00,,,0.25,12,weatherlink.com 1.10,2013-05-02 16:45:00,
2013-05-02 19:00:00,59.3,55.0,29.98,NNW,346,0.0,1.0,84,0.00,,,0.25,9,weatherlink.com 1.10,2013-05-02 17:00:00,
2013-05-02 19:15:00,58.6,54.0,29.98,South,190,0.0,1.0,85,0.00,,,0.25,7,weatherlink.com 1.10,2013-05-02 17:15:00,
2013-05-02 19:30:00,57.9,54.0,29.98,South,190,0.0,0.0,86,0.00,,,0.25,7,weatherlink.com 1.10,2013-05-02 17:30:00,
2013-05-02 19:45:00,57.4,53.0,29.98,WNW,292,0.0,1.0,86,0.00,,,0.25,0,weatherlink.com 1.10,2013-05-02 17:45:00,
2013-05-02 20:00:00,56.8,53.0,29.98,WNW,292,0.0,0.0,86,0.00,,,0.25,0,weatherlink.com 1.10,2013-05-02 18:00:00,
2013-05-02 20:15:00,56.4,53.0,29.98,WNW,286,0.0,0.0,87,0.00,,,0.25,0,weatherlink.com 1.10,2013-05-02 18:15:00,
2013-05-02 20:30:00,55.9,52.0,29.97,WNW,286,0.0,0.0,87,0.00,,,0.25,0,weatherlink.com 1.10,2013-05-02 18:30:00,
2013-05-02 20:45:00,55.6,52.0,29.97,WNW,286,0.0,0.0,88,0.00,,,0.25,0,weatherlink.com 1.10,2013-05-02 18:45:00,
2013-05-02 21:00:00,55.3,52.0,29.97,WNW,286,0.0,1.0,87,0.00,,,0.25,0,weatherlink.com 1.10,2013-05-02 19:00:00,
2013-05-02 21:15:00,55.0,51.0,29.97,WNW,286,0.0,0.0,87,0.00,,,0.25,0,weatherlink.com 1.10,2013-05-02 19:15:00,
2013-05-02 21:30:00,54.8,51.0,29.97,WNW,287,0.0,0.0,87,0.00,,,0.25,0,weatherlink.com 1.10,2013-05-02 19:30:00,
2013-05-02 21:45:00,54.6,51.0,29.97,NW,311,0.0,3.0,87,0.00,,,0.25,0,weatherlink.com 1.10,2013-05-02 19:45:00,
2013-05-02 22:00:00,54.4,51.0,29.98,WNW,297,0.0,2.0,88,0.00,,,0.25,0,weatherlink.com 1.10,2013-05-02 20:00:00,
2013-05-02 22:15:00,54.2,51.0,29.97,WNW,297,0.0,0.0,89,0.00,,,0.25,0,weatherlink.com 1.10,2013-05-02 20:15:00,
2013-05-02 22:30:00,53.9,51.0,29.97,WNW,297,0.0,0.0,90,0.00,,,0.25,0,weatherlink.com 1.10,2013-05-02 20:30:00,
2013-05-02 22:45:00,53.5,51.0,29.96,WNW,296,0.0,1.0,92,0.00,,,0.25,0,weatherlink.com 1.10,2013-05-02 20:45:00,
2013-05-02 23:00:00,53.1,51.0,29.96,WNW,296,0.0,0.0,93,0.01,,,0.26,0,weatherlink.com 1.10,2013-05-02 21:00:00,
2013-05-02 23:15:00,52.9,51.0,29.96,WNW,296,0.0,0.0,94,0.02,,,0.27,0,weatherlink.com 1.10,2013-05-02 21:15:00,
2013-05-02 23:30:00,52.7,51.0,29.96,WNW,296,0.0,1.0,95,0.02,,,0.27,0,weatherlink.com 1.10,2013-05-02 21:30:00,
2013-05-02 23:45:00,52.5,51.0,29.96,WNW,292,0.0,0.0,95,0.02,,,0.27,0,weatherlink.com 1.10,2013-05-02 21:45:00,